Punta Gorda, FL

9:41 AM EST on February 12, 2016 (GMT -0500)
Charlotte County

Weather History for KPGD - October, 2012

Change the Weather History Date:

Tuesday, October 23, 2012

  Actual Average (KFMY) Record (KFMY)
Temperature  
Mean Temperature 76 °F 76 °F  
Max Temperature 87 °F 85 °F 91 °F (1919)
Min Temperature 66 °F 67 °F 53 °F (1916)
Degree Days  
Heating Degree Days 0 0  
Month to date heating degree days 0  
Since 1 July heating degree days 0  
Cooling Degree Days 12 11  
Month to date cooling degree days 317  
Year to date cooling degree days 3563  
Growing Degree Days 26 (Base 50)    
Moisture  
Dew Point 66 °F    
Average Humidity 74    
Maximum Humidity 90    
Minimum Humidity 51    
Precipitation  
Precipitation 0.00 in 0.08 in 1.91 in (1969)
Month to date precipitation 2.30  
Year to date precipitation 51.68  
Sea Level Pressure  
Sea Level Pressure 30.01 in    
Wind  
Wind Speed 9 mph (NE)    
Max Wind Speed 21 mph    
Max Gust Speed 28 mph    
Visibility 10 miles    
Events      
T = Trace of Precipitation, MM = Missing Value Source: NWS Daily Summary

Daily Weather History Graph

Daily Weather History Graph

Search for Another Location

Airport or City:

Trip Planner

Search our weather history database for the weather conditions in past years. The results will help you decide how hot, cold, wet, or windy it might be!

Date:

Astronomy

Oct. 23, 2012 Rise Set
Actual Time 7:32 AM EDT 6:51 PM EDT
Civil Twilight 7:08 AM EDT 7:15 PM EDT
Nautical Twilight 6:41 AM EDT 7:42 PM EDT
Astronomical Twilight 6:14 AM EDT 8:09 PM EDT
Moon 3:05 PM EDT (10/23) 1:55 AM EDT (10/23)
Length of Visible Light 12h 06m
Length of Day
11h 19m
Waxing Gibbous, 66% of the Moon is Illuminated
Oct 23
Waxing Gibbous
Oct 29
Full
Nov 6
Last Quarter
Nov 13
New
Nov 20
First Quarter

Hourly Weather History & Observations

Time (EDT) Temp. Heat Index Dew Point Humidity Pressure Visibility Wind Dir Wind Speed Gust Speed Precip Events Conditions
12:53 AM 70.0 °F - 64.0 °F 81% 30.05 in 10.0 mi NNE 6.9 mph - N/A   Scattered Clouds
3:53 AM 68.0 °F - 63.0 °F 84% 30.02 in 10.0 mi NE 6.9 mph - N/A   Partly Cloudy
4:53 AM 66.9 °F - 63.0 °F 87% 30.01 in 10.0 mi NE 6.9 mph - N/A   Partly Cloudy
5:53 AM 66.0 °F - 63.0 °F 90% 30.02 in 10.0 mi NNE 4.6 mph - N/A   Clear
6:53 AM 66.0 °F - 63.0 °F 90% 30.02 in 10.0 mi NNE 5.8 mph - N/A   Clear
7:53 AM 66.0 °F - 63.0 °F 90% 30.03 in 10.0 mi NNE 5.8 mph - N/A   Clear
8:53 AM 72.0 °F - 64.0 °F 76% 30.04 in 10.0 mi NE 5.8 mph - N/A   Clear
9:53 AM 78.1 °F - 66.0 °F 66% 30.04 in 10.0 mi NE 9.2 mph - N/A   Clear
11:53 AM 82.9 °F 85.0 °F 66.0 °F 56% 30.03 in 10.0 mi ENE 13.8 mph - N/A   Partly Cloudy
1:53 PM 87.1 °F 89.9 °F 66.9 °F 51% 29.98 in 10.0 mi NE 12.7 mph 20.7 mph N/A   Partly Cloudy
2:53 PM 84.9 °F 88.8 °F 69.1 °F 59% 29.96 in 10.0 mi NE 17.3 mph 23.0 mph N/A   Mostly Cloudy
3:53 PM 84.0 °F 87.8 °F 69.1 °F 61% 29.96 in 10.0 mi ENE 17.3 mph 23.0 mph 0.00 in   Mostly Cloudy
4:53 PM 84.0 °F 87.8 °F 69.1 °F 61% 29.96 in 10.0 mi ENE 20.7 mph 27.6 mph N/A   Scattered Clouds
5:53 PM 79.0 °F - 66.0 °F 64% 29.97 in 10.0 mi ENE 18.4 mph 26.5 mph N/A   Mostly Cloudy
6:53 PM 77.0 °F - 66.9 °F 71% 29.99 in 10.0 mi ENE 12.7 mph - N/A   Clear
7:53 PM 75.9 °F - 66.9 °F 74% 30.00 in 10.0 mi ENE 10.4 mph - N/A   Mostly Cloudy
8:53 PM 77.0 °F - 66.0 °F 69% 30.01 in 10.0 mi ENE 11.5 mph - N/A   Overcast
9:53 PM 73.0 °F - 66.9 °F 81% 30.03 in 10.0 mi NE 6.9 mph - N/A   Clear
10:53 PM 71.1 °F - 66.0 °F 84% 30.04 in 10.0 mi NE 6.9 mph - N/A   Clear
11:53 PM 71.1 °F - 66.0 °F 84% 30.03 in 10.0 mi NE 5.8 mph - N/A   Scattered Clouds